Location: Cheyres
(46.8153°N, 6.7877°E)
Time: 02:29:46
(UTC+00:00)

Cosmos 1461 - Pass Details

Date: 11 May 2021
Orbit: 510 x 653 km, 65.0° (Epoch: 18 June)

Event Time Altitude Azimuth Distance (km) Brightness Sun altitude
Exits shadow 23:07:19 70° 273° (W) 692 3.2 -24.9°
Maximum altitude 23:07:38 73° 308° (NW) 680 3.2 -24.9°
Drops below altitude 10° 23:12:15 10° 34° (NNE) 2,031 6.4 -24.9°
Sets 23:14:32 0° 36° (NE) 2,925 7.3 -25.0°
